N1CP KMYR-KLBE

Flight info

Callsign N1CP
Flight time 1h 13m
Altitude 40000
Route RYCKI Q69 RICCS IHD
Aircraft CL60/M-SBDE1E2E3FGHIJ1J3J4J5J7M3P2RWXYZ/LB1V1D1

Departure

Time 2026-05-06 18:13
Airport Myrtle Beach International Airport (KMYR)

Arrival

Time 2026-05-06 19:26
Airport Arnold Palmer Regional Airport (KLBE)
Time Latitude Longitude Altitude Speed Heading
2026-05-06 17:45 33.67088 -78.93283 27 ft 0 kts 167°
2026-05-06 18:06 33.67085 -78.93282 27 ft 4 kts 156°
2026-05-06 18:06 33.67087 -78.93237 26 ft 9 kts 63°
2026-05-06 18:06 33.67110 -78.93134 26 ft 14 kts 79°
2026-05-06 18:06 33.67152 -78.93020 26 ft 14 kts 18°
2026-05-06 18:07 33.67272 -78.93024 26 ft 20 kts 349°
2026-05-06 18:07 33.67425 -78.93062 26 ft 23 kts 347°
2026-05-06 18:07 33.67600 -78.93106 25 ft 26 kts 348°
2026-05-06 18:07 33.67793 -78.93153 25 ft 29 kts 348°
2026-05-06 18:08 33.68004 -78.93206 25 ft 32 kts 348°
2026-05-06 18:08 33.68224 -78.93262 25 ft 30 kts 349°
2026-05-06 18:08 33.68384 -78.93301 25 ft 23 kts 348°
2026-05-06 18:08 33.68545 -78.93340 24 ft 21 kts 347°
2026-05-06 18:09 33.68688 -78.93377 24 ft 19 kts 348°
2026-05-06 18:09 33.68819 -78.93411 24 ft 19 kts 346°
2026-05-06 18:09 33.68969 -78.93449 23 ft 23 kts 348°
2026-05-06 18:09 33.69115 -78.93481 22 ft 13 kts
2026-05-06 18:10 33.69189 -78.93437 22 ft 9 kts 59°
2026-05-06 18:10 33.69210 -78.93353 22 ft 12 kts 78°
2026-05-06 18:10 33.69226 -78.93261 22 ft 4 kts 77°
2026-05-06 18:10 33.69229 -78.93248 22 ft 1 kts 77°
2026-05-06 18:11 33.69235 -78.93216 22 ft 5 kts 79°
2026-05-06 18:11 33.69233 -78.93156 22 ft 8 kts 129°
2026-05-06 18:11 33.69209 -78.93139 22 ft 0 kts 167°
2026-05-06 18:12 33.69144 -78.93124 22 ft 42 kts 168°
2026-05-06 18:12 33.68512 -78.92965 31 ft 137 kts 169°
2026-05-06 18:13 33.67462 -78.92686 545 ft 175 kts 169°
2026-05-06 18:13 33.66367 -78.91698 1107 ft 230 kts 118°
2026-05-06 18:13 33.66311 -78.89681 1946 ft 268 kts 71°
2026-05-06 18:13 33.67263 -78.87762 3217 ft 278 kts 48°
2026-05-06 18:14 33.68736 -78.86359 4621 ft 277 kts 24°
2026-05-06 18:14 33.70526 -78.85698 5905 ft 274 kts
2026-05-06 18:14 33.72362 -78.85917 7144 ft 268 kts 336°
2026-05-06 18:14 33.74062 -78.86798 8396 ft 267 kts 329°
2026-05-06 18:15 33.75705 -78.87728 9598 ft 269 kts 329°
2026-05-06 18:15 33.77381 -78.88670 10794 ft 271 kts 328°
2026-05-06 18:15 33.79129 -78.89659 11615 ft 287 kts 328°
2026-05-06 18:15 33.81006 -78.90721 12372 ft 305 kts 328°
2026-05-06 18:16 33.82959 -78.91824 13122 ft 319 kts 329°
2026-05-06 18:16 33.84999 -78.92974 13899 ft 332 kts 329°
2026-05-06 18:16 33.87124 -78.94169 14731 ft 341 kts 328°
2026-05-06 18:16 33.89270 -78.95375 15663 ft 345 kts 329°
2026-05-06 18:17 33.91459 -78.96603 16595 ft 347 kts 329°
2026-05-06 18:17 33.93624 -78.97819 17520 ft 349 kts 328°
2026-05-06 18:17 33.95831 -78.99062 18356 ft 352 kts 329°
2026-05-06 18:17 33.98073 -79.00325 19015 ft 360 kts 329°
2026-05-06 18:18 34.00370 -79.01621 19643 ft 367 kts 329°
2026-05-06 18:18 34.02694 -79.02931 20219 ft 374 kts 329°
2026-05-06 18:18 34.05097 -79.04288 20802 ft 382 kts 330°
2026-05-06 18:18 34.07516 -79.05653 21421 ft 387 kts 330°
2026-05-06 18:19 34.09970 -79.07038 22005 ft 392 kts 330°
2026-05-06 18:19 34.12440 -79.08434 22555 ft 398 kts 331°
2026-05-06 18:19 34.14923 -79.09837 23141 ft 402 kts 330°
2026-05-06 18:19 34.17477 -79.11281 23747 ft 406 kts 330°
2026-05-06 18:20 34.20068 -79.12747 24351 ft 409 kts 330°
2026-05-06 18:20 34.22659 -79.14214 24909 ft 411 kts 330°
2026-05-06 18:20 34.25231 -79.15671 25502 ft 412 kts 330°
2026-05-06 18:20 34.27846 -79.17155 25973 ft 416 kts 330°
2026-05-06 18:21 34.30476 -79.18649 26422 ft 420 kts 329°
2026-05-06 18:21 34.33144 -79.20165 26874 ft 424 kts 330°
2026-05-06 18:21 34.35824 -79.21689 27334 ft 426 kts 330°
2026-05-06 18:21 34.38519 -79.23222 27831 ft 427 kts 329°
2026-05-06 18:22 34.41198 -79.24748 28227 ft 430 kts 329°
2026-05-06 18:22 34.43944 -79.26313 28572 ft 434 kts 329°
2026-05-06 18:22 34.46677 -79.27872 28995 ft 436 kts 330°
2026-05-06 18:22 34.49439 -79.29446 29420 ft 437 kts 329°
2026-05-06 18:23 34.52178 -79.31012 29753 ft 438 kts 329°
2026-05-06 18:23 34.54933 -79.32584 30323 ft 434 kts 329°
2026-05-06 18:23 34.57681 -79.34150 31061 ft 425 kts 328°
2026-05-06 18:23 34.60352 -79.35674 31823 ft 416 kts 328°
2026-05-06 18:24 34.62940 -79.37151 32656 ft 405 kts 328°
2026-05-06 18:24 34.65518 -79.38625 33458 ft 395 kts 327°
2026-05-06 18:24 34.68019 -79.40057 34226 ft 386 kts 327°
2026-05-06 18:24 34.70464 -79.41456 34881 ft 380 kts 327°
2026-05-06 18:25 34.72847 -79.42824 35511 ft 374 kts 326°
2026-05-06 18:25 34.75198 -79.44176 35920 ft 372 kts 326°
2026-05-06 18:25 34.77566 -79.45540 36202 ft 373 kts 326°
2026-05-06 18:25 34.79911 -79.46892 36510 ft 372 kts 326°
2026-05-06 18:26 34.82269 -79.48252 36795 ft 372 kts 326°
2026-05-06 18:26 34.84615 -79.49605 37178 ft 369 kts 325°
2026-05-06 18:26 34.86907 -79.50926 37497 ft 367 kts 326°
2026-05-06 18:26 34.89220 -79.52261 37858 ft 365 kts 325°
2026-05-06 18:27 34.91536 -79.53599 38071 ft 365 kts 325°
2026-05-06 18:27 34.93821 -79.54919 38322 ft 364 kts 325°
2026-05-06 18:27 34.96132 -79.56256 38588 ft 362 kts 324°
2026-05-06 18:27 34.98381 -79.57558 38788 ft 362 kts 325°
2026-05-06 18:28 35.00669 -79.58883 39040 ft 360 kts 324°
2026-05-06 18:28 35.02940 -79.60199 39217 ft 360 kts 325°
2026-05-06 18:28 35.05193 -79.61505 39368 ft 360 kts 324°
2026-05-06 18:28 35.07460 -79.62822 39498 ft 360 kts 324°
2026-05-06 18:29 35.09737 -79.64142 39720 ft 358 kts 324°
2026-05-06 18:29 35.11992 -79.65453 39841 ft 359 kts 324°
2026-05-06 18:29 35.14286 -79.66787 39959 ft 360 kts 323°
2026-05-06 18:29 35.16575 -79.68121 39994 ft 363 kts 323°
2026-05-06 18:30 35.21206 -79.70819 39986 ft 368 kts 324°
2026-05-06 18:30 35.25856 -79.73530 39999 ft 372 kts 323°
2026-05-06 18:31 35.30562 -79.76279 39980 ft 374 kts 324°
2026-05-06 18:31 35.35293 -79.79041 39982 ft 373 kts 324°
2026-05-06 18:32 35.39981 -79.81781 39970 ft 373 kts 324°
2026-05-06 18:32 35.44685 -79.84536 39983 ft 372 kts 324°
2026-05-06 18:33 35.49347 -79.87270 39998 ft 373 kts 324°
2026-05-06 18:33 35.54046 -79.90029 40000 ft 373 kts 324°
2026-05-06 18:34 35.58711 -79.92772 39998 ft 374 kts 323°
2026-05-06 18:34 35.63409 -79.95538 40006 ft 373 kts 323°
2026-05-06 18:35 35.68095 -79.98301 39992 ft 373 kts 323°
2026-05-06 18:35 35.72801 -80.01080 39991 ft 374 kts 324°
2026-05-06 18:36 35.77504 -80.03860 39979 ft 374 kts 323°
2026-05-06 18:36 35.82208 -80.06645 39975 ft 375 kts 323°
2026-05-06 18:37 35.86917 -80.09436 39981 ft 376 kts 323°
2026-05-06 18:37 35.91614 -80.12224 39973 ft 375 kts 324°
2026-05-06 18:38 35.96323 -80.15022 39974 ft 375 kts 323°
2026-05-06 18:38 36.01020 -80.17818 39975 ft 376 kts 323°
2026-05-06 18:39 36.05770 -80.20649 39974 ft 377 kts 323°
2026-05-06 18:40 36.12837 -80.24863 39963 ft 376 kts 323°
2026-05-06 18:40 36.17444 -80.27621 39966 ft 375 kts 322°
2026-05-06 18:41 36.22127 -80.30426 39956 ft 376 kts 323°
2026-05-06 18:41 36.26851 -80.33257 39958 ft 376 kts 323°
2026-05-06 18:42 36.31565 -80.36086 39962 ft 376 kts 322°
2026-05-06 18:42 36.36329 -80.38811 39960 ft 385 kts 327°
2026-05-06 18:43 36.41672 -80.40532 39959 ft 408 kts 338°
2026-05-06 18:43 36.44525 -80.40807 39965 ft 421 kts 345°
2026-05-06 18:43 36.47501 -80.40593 39963 ft 438 kts 353°
2026-05-06 18:44 36.53577 -80.39372 39968 ft 441 kts 355°
2026-05-06 18:44 36.59629 -80.38133 39960 ft 440 kts 355°
2026-05-06 18:45 36.65681 -80.36896 39961 ft 441 kts 354°
2026-05-06 18:45 36.71742 -80.35654 39956 ft 443 kts 354°
2026-05-06 18:46 36.77836 -80.34629 39957 ft 438 kts 351°
2026-05-06 18:46 36.83866 -80.33776 39962 ft 436 kts 351°
2026-05-06 18:47 36.89909 -80.32920 39958 ft 436 kts 352°
2026-05-06 18:47 36.95934 -80.32066 39966 ft 437 kts 351°
2026-05-06 18:48 37.02002 -80.31204 39975 ft 438 kts 351°
2026-05-06 18:48 37.08104 -80.30338 39968 ft 441 kts 352°
2026-05-06 18:49 37.13969 -80.29497 39969 ft 442 kts 352°
2026-05-06 18:49 37.20197 -80.28603 39967 ft 438 kts 351°
2026-05-06 18:50 37.26246 -80.27739 39967 ft 438 kts 352°
2026-05-06 18:50 37.32309 -80.26868 39961 ft 437 kts 352°
2026-05-06 18:51 37.38356 -80.25999 39949 ft 437 kts 351°
2026-05-06 18:51 37.44396 -80.25133 39946 ft 439 kts 352°
2026-05-06 18:52 37.50476 -80.24258 39940 ft 441 kts 352°
2026-05-06 18:52 37.56586 -80.23374 39945 ft 441 kts 351°
2026-05-06 18:53 37.62678 -80.22491 39951 ft 440 kts 352°
2026-05-06 18:53 37.68798 -80.21594 39931 ft 442 kts 352°
2026-05-06 18:54 37.74897 -80.20686 39939 ft 442 kts 352°
2026-05-06 18:54 37.81010 -80.19773 39935 ft 443 kts 352°
2026-05-06 18:55 37.87136 -80.18858 39941 ft 443 kts 352°
2026-05-06 18:55 37.93262 -80.17940 39934 ft 441 kts 352°
2026-05-06 18:56 37.99359 -80.17026 39941 ft 442 kts 352°
2026-05-06 18:56 38.05519 -80.16103 39933 ft 443 kts 352°
2026-05-06 18:57 38.11647 -80.15182 39925 ft 444 kts 351°
2026-05-06 18:57 38.17801 -80.14255 39927 ft 445 kts 352°
2026-05-06 18:58 38.23962 -80.13323 39934 ft 444 kts 352°
2026-05-06 18:58 38.30190 -80.12386 39926 ft 448 kts 351°
2026-05-06 18:59 38.36457 -80.11460 39922 ft 447 kts 349°
2026-05-06 18:59 38.42601 -80.11075 39913 ft 440 kts 347°
2026-05-06 19:00 38.48720 -80.10747 39915 ft 440 kts 347°
2026-05-06 19:00 38.54821 -80.10425 39693 ft 447 kts 347°
2026-05-06 19:00 38.57982 -80.10262 39177 ft 453 kts 347°
2026-05-06 19:01 38.61143 -80.10088 38696 ft 450 kts 347°
2026-05-06 19:01 38.64234 -80.09914 38229 ft 447 kts 347°
2026-05-06 19:01 38.67353 -80.09741 37758 ft 447 kts 347°
2026-05-06 19:01 38.70486 -80.09571 37302 ft 448 kts 347°
2026-05-06 19:02 38.73579 -80.09403 36801 ft 449 kts 347°
2026-05-06 19:02 38.76735 -80.09229 36311 ft 450 kts 347°
2026-05-06 19:02 38.79852 -80.09061 35813 ft 454 kts 347°
2026-05-06 19:02 38.83024 -80.08890 35312 ft 458 kts 348°
2026-05-06 19:03 38.86235 -80.08656 34797 ft 465 kts 351°
2026-05-06 19:03 38.89508 -80.08075 34262 ft 478 kts 356°
2026-05-06 19:03 38.92760 -80.07071 33740 ft 492 kts
2026-05-06 19:03 38.96067 -80.05550 33189 ft 508 kts 11°
2026-05-06 19:04 38.99282 -80.03526 32575 ft 519 kts 16°
2026-05-06 19:04 39.02502 -80.01331 32013 ft 521 kts 16°
2026-05-06 19:04 39.05701 -79.99155 31425 ft 523 kts 17°
2026-05-06 19:04 39.08890 -79.96983 30843 ft 524 kts 17°
2026-05-06 19:05 39.12114 -79.94785 30281 ft 526 kts 17°
2026-05-06 19:05 39.15352 -79.92573 29683 ft 524 kts 18°
2026-05-06 19:05 39.18615 -79.90340 29096 ft 520 kts 18°
2026-05-06 19:05 39.21794 -79.88164 28527 ft 517 kts 18°
2026-05-06 19:06 39.24965 -79.85989 27945 ft 511 kts 17°
2026-05-06 19:06 39.28079 -79.83852 27394 ft 506 kts 18°
2026-05-06 19:06 39.31185 -79.81720 26825 ft 502 kts 18°
2026-05-06 19:06 39.34265 -79.79604 26273 ft 497 kts 18°
2026-05-06 19:07 39.37272 -79.77536 25732 ft 493 kts 18°
2026-05-06 19:07 39.40284 -79.75465 25186 ft 490 kts 17°
2026-05-06 19:07 39.43292 -79.73394 24647 ft 486 kts 17°
2026-05-06 19:07 39.46257 -79.71349 24103 ft 480 kts 17°
2026-05-06 19:08 39.49157 -79.69349 23576 ft 477 kts 17°
2026-05-06 19:08 39.52088 -79.67326 23060 ft 473 kts 17°
2026-05-06 19:08 39.54979 -79.65328 22530 ft 468 kts 18°
2026-05-06 19:08 39.57840 -79.63348 22014 ft 463 kts 18°
2026-05-06 19:09 39.60659 -79.61396 21507 ft 457 kts 18°
2026-05-06 19:09 39.63438 -79.59471 20998 ft 453 kts 18°
2026-05-06 19:09 39.66189 -79.57564 20495 ft 449 kts 18°
2026-05-06 19:09 39.68939 -79.55656 20010 ft 444 kts 18°
2026-05-06 19:10 39.71658 -79.53767 19515 ft 439 kts 19°
2026-05-06 19:10 39.74308 -79.51924 19029 ft 434 kts 19°
2026-05-06 19:10 39.76975 -79.50069 18571 ft 429 kts 19°
2026-05-06 19:10 39.79579 -79.48265 18076 ft 425 kts 19°
2026-05-06 19:11 39.82211 -79.46457 17603 ft 420 kts 19°
2026-05-06 19:11 39.84739 -79.44724 17168 ft 411 kts 19°
2026-05-06 19:11 39.87260 -79.43002 16717 ft 402 kts 19°
2026-05-06 19:11 39.89690 -79.41248 16229 ft 401 kts 26°
2026-05-06 19:12 39.91922 -79.39087 15723 ft 398 kts 30°
2026-05-06 19:12 39.94103 -79.36941 15213 ft 392 kts 30°
2026-05-06 19:12 39.96268 -79.34818 14723 ft 387 kts 31°
2026-05-06 19:12 39.98432 -79.32749 14139 ft 384 kts 30°
2026-05-06 19:13 40.00452 -79.30823 13605 ft 381 kts 31°
2026-05-06 19:13 40.02438 -79.28951 13093 ft 377 kts 31°
2026-05-06 19:13 40.04547 -79.26986 12552 ft 373 kts 31°
2026-05-06 19:13 40.06657 -79.25041 12051 ft 369 kts 30°
2026-05-06 19:14 40.08761 -79.23124 11542 ft 365 kts 30°
2026-05-06 19:14 40.10803 -79.21174 11040 ft 363 kts 33°
2026-05-06 19:14 40.12667 -79.19293 10554 ft 359 kts 33°
2026-05-06 19:14 40.14597 -79.17364 10009 ft 350 kts 33°
2026-05-06 19:15 40.16462 -79.15461 9714 ft 334 kts 33°
2026-05-06 19:15 40.18267 -79.13622 9546 ft 323 kts 33°
2026-05-06 19:15 40.20010 -79.11831 9301 ft 315 kts 33°
2026-05-06 19:15 40.21718 -79.10069 9050 ft 308 kts 33°
2026-05-06 19:16 40.23366 -79.08361 8814 ft 301 kts 33°
2026-05-06 19:16 40.25007 -79.06660 8561 ft 295 kts 33°
2026-05-06 19:16 40.26605 -79.05010 8313 ft 288 kts 31°
2026-05-06 19:16 40.28280 -79.03745 8071 ft 273 kts 14°
2026-05-06 19:17 40.30058 -79.03162 7831 ft 257 kts 357°
2026-05-06 19:17 40.31804 -79.03207 7581 ft 242 kts 341°
2026-05-06 19:17 40.33373 -79.03772 7332 ft 229 kts 328°
2026-05-06 19:17 40.34744 -79.04743 7087 ft 217 kts 316°
2026-05-06 19:18 40.35879 -79.05983 6814 ft 209 kts 309°
2026-05-06 19:18 40.36911 -79.07271 6398 ft 204 kts 309°
2026-05-06 19:18 40.37928 -79.08534 6011 ft 197 kts 310°
2026-05-06 19:18 40.38912 -79.09759 5601 ft 194 kts 310°
2026-05-06 19:19 40.39873 -79.10957 5231 ft 189 kts 311°
2026-05-06 19:19 40.40815 -79.12163 4783 ft 188 kts 310°
2026-05-06 19:19 40.41742 -79.13354 4416 ft 183 kts 313°
2026-05-06 19:19 40.42623 -79.14439 4347 ft 171 kts 314°
2026-05-06 19:20 40.43507 -79.15539 4345 ft 174 kts 313°
2026-05-06 19:20 40.44095 -79.16878 4344 ft 172 kts 283°
2026-05-06 19:20 40.43976 -79.18456 4237 ft 179 kts 249°
2026-05-06 19:20 40.43201 -79.19752 4006 ft 183 kts 229°
2026-05-06 19:21 40.42283 -79.20918 3847 ft 182 kts 229°
2026-05-06 19:21 40.41378 -79.22098 3859 ft 184 kts 231°
2026-05-06 19:21 40.40472 -79.23313 3858 ft 184 kts 231°
2026-05-06 19:21 40.39576 -79.24524 3861 ft 185 kts 230°
2026-05-06 19:22 40.38691 -79.25717 3859 ft 185 kts 230°
2026-05-06 19:22 40.37787 -79.26937 3854 ft 184 kts 230°
2026-05-06 19:22 40.36900 -79.28133 3750 ft 183 kts 231°
2026-05-06 19:22 40.36002 -79.29343 3449 ft 184 kts 230°
2026-05-06 19:23 40.35120 -79.30531 3187 ft 175 kts 231°
2026-05-06 19:23 40.34302 -79.31625 2954 ft 168 kts 231°
2026-05-06 19:23 40.33495 -79.32713 2726 ft 159 kts 230°
2026-05-06 19:23 40.32764 -79.33691 2527 ft 144 kts 231°
2026-05-06 19:24 40.32077 -79.34617 2324 ft 138 kts 231°
2026-05-06 19:24 40.31482 -79.35435 2137 ft 133 kts 232°
2026-05-06 19:24 40.30840 -79.36299 1966 ft 132 kts 230°
2026-05-06 19:24 40.30181 -79.37157 1783 ft 134 kts 229°
2026-05-06 19:25 40.29536 -79.38024 1608 ft 131 kts 230°
2026-05-06 19:25 40.28915 -79.38870 1424 ft 128 kts 230°
2026-05-06 19:25 40.28308 -79.39687 1270 ft 124 kts 230°
2026-05-06 19:25 40.27727 -79.40474 1140 ft 119 kts 223°
2026-05-06 19:26 40.27265 -79.41094 1164 ft 64 kts 226°
2026-05-06 19:26 40.27118 -79.41282 1176 ft 13 kts 192°
2026-05-06 19:26 40.27049 -79.41229 1177 ft 8 kts 133°
2026-05-06 19:26 40.27076 -79.41145 1173 ft 15 kts 46°
2026-05-06 19:27 40.27163 -79.41028 1166 ft 19 kts 46°
2026-05-06 19:27 40.27248 -79.40913 1159 ft 10 kts 61°
2026-05-06 19:27 40.27222 -79.40806 1158 ft 14 kts 107°
2026-05-06 19:27 40.27237 -79.40748 1157 ft 0 kts 29°